Location: Kolin
(50.0330°N, 15.2000°E)
Time: 11:08:35
(UTC+02:00)

ISS - Pass Details

Date: 23 May 2021
Orbit: 417 x 422 km, 51.6° (Epoch: 13 June)

Event Time Altitude Azimuth Distance (km) Brightness Sun altitude
Rises 22:10:07 0° 279° (W) 2,365 0.9 -10.3°
Reaches altitude 10° 22:12:14 10° 282° (WNW) 1,502 -0.1 -10.5°
Maximum altitude 22:15:35 67° 6° (N) 459 -3.4 -10.8°
Drops below altitude 10° 22:18:57 10° 90° (E) 1,503 -1.3 -11.2°
Enters shadow 22:19:30 - 91° (E) 1,727 -1.0 -11.2°
